Tracking 25734 objects as of 26-May-2022
HD Live streaming from Space Station
objects crossing your sky now

DELTA 2 DEB

Track DELTA 2 DEB now!
10-day predictions


NORAD ID: 26967
Int'l Code: 1993-017E
Perigee: 238.8 km
Apogee: 9,499.9 km
Inclination: 35.0 °
Period: 197.7 minutes
Semi major axis: 11240 km
RCS: 0.0077 m2 (small)
Launch date: March 30, 1993
Source: United States (US)
Launch site: AIR FORCE EASTERN TEST RANGE (AFETR)

Note: This is SATELLITE DEBRIS
aabbcc
Your satellite tracking list
Your tracking list is empty




NASA's NSSDC Master Catalog

Two Line Element Set (TLE):
1 26967U 93017E   22144.78250151  .00018487  00000-0  51351-3 0  9998
2 26967  34.9502   6.7331 4119572 150.5111 240.9657  7.28503967516178
Source of the keplerian elements: AFSPC